| time (UTC) | temp F | wind direction | speed MPH | gust MPH | rain 1hr in | rain 24hr in | rain mn in | humidity % | barometer mb |
| 20260502223016 | 73 | 90 | 1.0 | 6.0 | 0.00 | 0.00 | 0.00 | 52 | 1013.9 |
| 20260502220016 | 72 | 90 | 1.0 | 6.0 | 0.00 | 0.00 | 0.00 | 58 | 1014.4 |
| 20260502213016 | 71 | 90 | 1.0 | 8.0 | 0.00 | 0.00 | 0.00 | 62 | 1014.6 |
| 20260502210016 | 68 | 90 | 1.0 | 5.0 | 0.00 | 0.00 | 0.00 | 63 | 1014.8 |
| 20260502203016 | 67 | 90 | 1.0 | 6.0 | 0.00 | 0.00 | 0.00 | 65 | 1015.0 |
| 20260502200016 | 66 | 90 | 1.0 | 5.0 | 0.00 | 0.00 | 0.00 | 68 | 1015.5 |
| 20260502193016 | 64 | 90 | 1.0 | 5.0 | 0.00 | 0.00 | 0.00 | 70 | 1015.8 |
| 20260502190016 | 63 | 90 | 1.0 | 7.0 | 0.00 | 0.00 | 0.00 | 73 | 1016.1 |
| 20260502183016 | 61 | 90 | 1.0 | 5.0 | 0.00 | 0.00 | 0.00 | 76 | 1016.2 |
| 20260502163016 | 56 | 0.0 | 4.0 | 0.00 | 0.00 | 0.00 | 81 | 1016.7 | |
| 20260502123017 | 51 | 0.0 | 0.0 | 0.00 | 0.00 | 0.00 | 89 | 1016.4 | |
| 20260502113017 | 51 | 0.0 | 0.0 | 0.00 | 0.00 | 0.00 | 88 | 1016.6 | |
| 20260502110017 | 52 | 0.0 | 0.0 | 0.00 | 0.00 | 0.00 | 87 | 1017.0 | |
| 20260502103016 | 53 | 0.0 | 1.0 | 0.00 | 0.00 | 0.00 | 85 | 1016.4 | |
| 20260502070016 | 57 | 0.0 | 1.0 | 0.00 | 0.00 | 0.00 | 73 | 1016.0 | |
| 20260502063015 | 59 | 0.0 | 3.0 | 0.00 | 0.00 | 0.00 | 66 | 1016.0 | |
| 20260502060015 | 60 | 0.0 | 3.0 | 0.00 | 0.00 | 0.00 | 68 | 1016.0 | |
| 20260502053017 | 61 | 0.0 | 2.0 | 0.00 | 0.00 | 0.00 | 64 | 1015.4 | |
| 20260502050017 | 62 | 0.0 | 1.0 | 0.00 | 0.00 | 0.00 | 63 | 1015.3 | |
| 20260502043017 | 63 | 0.0 | 2.0 | 0.00 | 0.00 | 0.00 | 60 | 1015.1 | |
| 20260502040017 | 64 | 0.0 | 3.0 | 0.00 | 0.00 | 0.00 | 56 | 1014.7 | |
| 20260502033017 | 64 | 0.0 | 4.0 | 0.00 | 0.00 | 0.00 | 59 | 1014.6 | |
| 20260502030017 | 65 | 0.0 | 1.0 | 0.00 | 0.00 | 0.00 | 61 | 1014.1 | |
| 20260502023017 | 67 | 0.0 | 3.0 | 0.00 | 0.00 | 0.00 | 55 | 1014.0 | |
| 20260502020017 | 68 | 0.0 | 3.0 | 0.00 | 0.00 | 0.00 | 49 | 1014.0 | |
| 20260502013016 | 69 | 0.0 | 4.0 | 0.00 | 0.00 | 0.00 | 49 | 1014.0 | |
| 20260502010016 | 70 | 0.0 | 5.0 | 0.00 | 0.00 | 0.00 | 47 | 1014.1 | |
| 20260502003017 | 71 | 0.0 | 4.0 | 0.00 | 0.00 | 0.00 | 46 | 1014.2 | |
| 20260502000016 | 72 | 0.0 | 4.0 | 0.00 | 0.00 | 0.00 | 47 | 1014.0 | |
| 20260501233016 | 72 | 0.0 | 3.0 | 0.00 | 0.00 | 0.00 | 44 | 1014.1 | |
| 20260501230016 | 72 | 0.0 | 3.0 | 0.00 | 0.00 | 0.00 | 44 | 1014.4 |